Location: Bu�n Treun
(12.1333°N, 108.3167°E)
Time: 23:56:57
(UTC+00:00)

Centaur AC-72 - Pass Details

Date: 13 July 2020
Orbit: 1127 x 35228 km, 19.1° (Epoch: 03 August)

Event Time Altitude Azimuth Distance (km) Brightness Sun altitude
Exits shadow 21:39:54 - 284° (WNW) 3,853 5.1 -11.9°
Reaches altitude 10° 21:41:29 10° 288° (WNW) 3,128 4.7 -11.5°
Maximum altitude 21:47:14 52° 6° (N) 1,454 3.6 -10.3°
Drops below altitude 10° 21:56:06 10° 83° (E) 4,742 7.5 -8.3°
Sets 22:02:17 0° 88° (E) 7,405 8.5 -6.9°
